Theta_e
284 284 283 283 283 283 283 283 283 284 283 283 284 283 282 282 282 283 283 284 284 285 285 285 286 287 288 289 289 289 289 289 290 291 292 292 293 294 296 297 297 297 297 298 299 301 302 304 306 307 308 311 313 316 318 319 320 321 321 322 322 323 323 323 323 323 322 322 322 322 322 322 322 322 321 320 320 320 321 321 321 321 321 321 321
284 283 283 282 283 283 283 283 283 283 283 283 283 282 281 281 282 282 282 283 283 284 284 284 285 286 287 288 288 288 289 289 289 290 290 290 291 293 295 295 294 293 293 295 296 298 299 300 302 303 305 307 309 311 313 315 317 318 319 320 320 321 321 321 321 321 321 321 321 321 322 322 322 321 320 320 320 320 321 320 320 321 321 320 320
283 283 282 282 282 282 282 282 282 282 282 283 282 281 280 280 281 281 282 282 282 283 283 284 284 285 286 287 287 288 288 288 289 289 289 289 290 292 293 291 290 290 291 292 294 295 297 298 299 301 302 304 306 308 309 311 312 314 316 318 318 319 319 319 319 319 319 318 319 320 320 320 320 320 319 319 319 319 319 319 319 320 319 318 318
283 282 282 281 282 282 282 282 281 281 282 282 281 280 280 280 280 280 281 281 281 282 282 283 284 285 286 286 286 287 287 288 288 288 288 289 289 290 290 288 288 289 289 290 291 292 294 295 297 298 299 301 302 304 306 308 309 310 312 313 315 316 316 317 317 318 317 317 317 318 318 318 319 318 318 318 318 318 319 318 318 318 317 316 316
282 281 281 281 281 281 281 281 281 281 281 281 280 279 279 279 279 279 280 280 281 281 282 282 283 284 285 285 285 286 286 287 287 287 288 288 288 288 288 287 287 288 288 289 289 290 291 292 294 295 296 298 298 300 302 304 305 306 308 309 310 312 313 314 315 315 315 315 316 316 317 317 317 318 318 318 318 318 318 318 317 316 316 315 316
281 281 280 281 281 281 281 281 280 280 281 280 279 278 278 278 278 278 279 279 280 280 281 282 283 283 284 285 285 285 285 286 286 286 287 287 287 287 287 287 287 287 287 288 288 288 289 290 291 293 294 296 297 298 299 300 300 301 301 302 304 305 307 309 311 312 313 313 313 314 314 315 315 316 316 316 317 317 316 316 316 316 316 316 317
281 280 280 280 280 280 280 280 280 280 280 279 278 277 277 277 277 277 278 278 279 279 280 281 282 283 283 284 284 284 285 285 285 286 286 286 286 286 286 287 286 287 287 287 287 287 287 288 289 291 293 295 296 296 296 296 296 296 296 297 298 299 300 303 305 308 310 311 312 312 312 313 313 313 314 314 314 315 315 315 315 315 316 316 316
280 280 280 280 280 280 280 280 279 279 278 278 277 277 276 276 276 277 277 277 278 279 279 280 281 282 282 283 283 283 284 284 284 285 285 285 286 286 286 286 286 286 286 286 286 286 287 287 288 289 291 292 293 292 292 293 294 295 295 295 295 296 296 298 300 302 305 307 309 310 311 311 311 312 312 313 313 313 314 314 313 314 314 314 314
279 279 279 279 279 279 279 279 278 278 277 277 276 276 276 276 276 276 276 277 277 278 278 279 280 281 281 282 282 282 283 283 284 284 284 285 285 286 286 286 286 286 286 286 286 286 286 287 287 288 289 290 289 289 290 291 292 293 293 294 294 294 295 295 296 298 300 302 304 306 307 308 309 310 310 311 311 312 313 313 312 313 313 313 313
279 279 279 279 279 279 278 278 277 277 276 276 276 275 275 275 275 275 276 276 276 277 278 278 279 279 280 281 281 281 282 282 283 283 284 284 285 285 285 286 286 286 286 286 286 286 286 286 287 287 288 288 289 289 290 290 290 290 291 292 293 294 294 294 295 296 298 299 301 302 303 304 306 307 308 309 310 311 311 311 311 311 312 312 312
278 278 278 278 278 278 277 277 276 276 276 275 275 275 274 275 275 275 275 275 276 276 277 277 278 278 279 280 280 280 281 281 282 282 283 284 284 285 285 285 286 286 286 286 286 285 286 286 287 287 288 288 288 288 288 289 289 290 291 292 292 293 294 294 295 295 295 297 298 300 301 302 303 304 305 306 307 308 309 309 309 308 308 308 309
278 278 278 278 278 277 276 276 275 275 275 274 274 274 274 274 274 275 275 275 275 275 276 276 277 277 278 278 279 279 279 280 281 281 282 283 284 284 284 285 285 285 286 286 285 285 286 286 286 286 287 286 286 287 288 289 290 290 290 290 290 290 291 292 293 294 295 295 296 297 299 300 301 302 303 304 305 305 306 305 305 305 304 304 305
278 278 278 277 277 276 275 275 275 274 274 274 273 273 273 274 274 274 274 274 274 275 275 276 276 276 277 277 278 278 278 279 279 281 281 282 283 283 284 284 285 285 285 285 285 285 286 286 286 285 285 285 286 286 287 287 287 287 288 288 288 288 289 290 291 291 292 293 294 295 296 297 298 299 300 301 302 302 302 302 302 302 302 302 302
277 277 277 277 276 275 275 274 274 274 273 273 273 273 273 273 273 273 273 274 274 274 274 275 275 276 276 276 277 277 277 278 279 280 280 281 282 283 284 284 284 285 285 285 285 285 285 285 285 284 285 285 285 284 284 284 285 286 287 287 288 289 289 289 289 289 290 291 292 294 295 296 297 297 297 298 299 299 300 300 301 300 300 301 301
277 277 276 276 275 274 274 274 274 273 272 272 272 272 272 273 273 273 273 273 273 273 274 274 275 275 275 276 276 276 276 277 278 279 280 280 282 283 282 282 283 283 283 284 284 284 284 284 284 284 284 283 283 283 283 283 284 285 286 287 288 288 288 288 288 288 289 290 291 292 293 294 295 296 296 297 297 298 298 299 299 300 299 299 299
276 276 276 275 274 273 273 273 273 272 272 272 272 272 272 272 272 272 272 272 272 273 273 274 274 274 275 275 275 276 276 276 277 278 279 280 282 282 281 280 281 281 281 281 281 281 282 282 282 282 282 282 282 282 283 283 284 284 285 286 287 287 287 287 287 287 288 288 289 290 291 292 292 293 294 294 295 296 297 297 298 298 297 296 296
276 276 275 274 273 273 273 273 272 271 271 271 271 271 271 271 271 271 271 272 272 272 273 273 273 274 274 274 275 275 275 275 276 277 279 280 281 280 280 280 280 280 280 280 280 280 280 280 281 281 282 282 282 282 282 282 283 283 284 285 286 286 286 286 286 287 287 287 288 289 290 291 291 292 292 293 293 294 294 295 295 296 296 296 296
275 275 274 273 272 272 272 272 271 270 270 270 270 270 270 270 270 270 271 271 271 272 272 272 273 273 273 274 274 274 275 275 276 277 278 280 280 279 279 279 279 279 279 279 279 279 279 280 280 280 281 281 281 281 281 281 282 282 283 284 284 285 285 285 286 286 286 287 287 288 288 289 290 290 291 291 292 292 293 293 294 294 295 295 295
274 274 273 272 272 271 271 271 270 270 269 269 269 269 269 269 270 270 270 270 271 271 271 272 272 272 273 273 273 274 274 275 275 276 278 279 279 278 278 278 278 278 278 278 278 278 279 279 279 279 280 280 280 280 280 281 281 282 282 283 283 284 284 284 284 285 285 285 286 287 287 287 288 288 288 289 289 290 290 291 292 292 293 294 294
273 273 272 272 271 271 270 269 269 269 268 268 268 269 269 269 269 269 269 269 270 270 271 271 271 272 272 273 273 273 274 274 274 275 277 278 278 277 277 277 276 277 277 277 277 277 278 278 278 278 278 279 279 279 279 280 281 281 282 282 282 282 282 283 284 284 285 285 285 286 286 287 287 288 288 288 288 288 289 289 290 291 291 292 293
272 272 272 271 271 270 269 269 268 268 268 268 268 268 268 268 268 268 268 269 269 270 270 270 271 271 272 272 273 273 273 273 274 275 276 277 277 276 276 276 276 276 276 276 276 277 277 277 277 277 277 277 278 278 279 279 280 281 281 281 281 282 282 283 284 284 285 285 285 286 287 287 288 288 288 288 288 288 289 289 290 290 291 291 292
271 270 270 270 270 269 268 268 267 267 267 267 267 267 267 267 267 268 268 268 269 269 270 270 271 271 271 272 272 272 272 273 273 274 275 276 275 275 275 275 275 276 276 276 276 276 276 276 276 276 276 277 277 278 278 279 280 280 280 280 281 282 282 282 283 283 283 284 284 285 286 286 287 287 288 288 288 289 289 290 290 290 291 291 292
270 269 269 269 268 268 267 267 266 266 266 266 266 266 267 267 267 267 268 268 269 269 269 270 270 270 271 271 271 271 272 272 273 274 274 274 274 274 274 274 275 275 275 275 275 275 275 275 275 275 276 276 277 277 278 278 279 279 279 280 281 281 281 281 281 282 283 283 284 285 285 286 286 287 287 288 288 289 289 289 289 290 290 291 291
268 268 268 268 267 267 266 266 266 266 266 266 266 266 266 266 267 267 267 268 268 269 269 269 270 270 270 270 271 271 271 271 272 273 273 273 273 273 273 274 274 274 274 274 274 274 274 274 275 275 275 276 276 276 277 277 277 278 278 278 278 278 278 279 280 281 281 283 284 284 285 286 286 287 288 288 288 288 288 288 289 289 289 289 289
268 267 267 266 266 266 266 265 265 265 265 266 266 266 266 266 266 267 267 267 267 268 268 269 269 269 270 270 270 270 271 271 272 272 272 272 272 272 273 273 273 274 274 273 273 273 273 274 274 274 274 274 275 275 276 276 276 276 276 276 276 275 276 277 278 279 279 281 282 283 284 284 285 285 286 286 286 286 286 287 287 288 288 288 288
267 266 266 265 265 265 265 265 265 265 265 265 265 265 265 266 266 266 266 266 267 267 267 268 268 269 269 270 270 270 270 271 271 271 271 271 271 272 272 273 273 273 273 273 273 273 273 273 273 273 273 274 274 274 274 274 273 273 274 274 273 274 274 275 276 277 278 279 280 280 280 281 282 283 283 284 285 285 285 286 287 287 287 287 287
266 265 265 264 264 264 264 264 264 264 265 265 264 264 265 265 265 266 266 266 266 266 267 267 268 269 269 270 270 270 270 271 271 271 271 271 271 272 272 272 272 272 272 273 273 273 273 272 272 271 272 272 272 272 272 271 271 271 271 271 271 272 272 273 274 275 277 277 277 277 277 278 279 281 282 283 284 285 285 285 286 286 287 287 287
265 264 264 264 264 264 264 264 264 264 264 264 264 264 264 264 265 265 265 265 266 266 267 267 268 269 269 270 270 270 270 271 271 271 271 271 272 272 272 272 272 272 273 273 273 273 272 270 270 270 270 270 270 270 269 269 269 269 269 269 269 270 270 271 272 274 275 275 274 275 276 277 278 279 280 281 282 283 284 284 284 285 285 286 287
264 264 263 263 263 263 263 263 263 263 263 263 263 263 263 264 264 265 265 265 266 266 267 268 268 269 270 270 270 270 270 270 271 271 271 271 272 272 272 272 272 272 272 273 272 271 270 268 268 268 268 268 268 268 268 268 267 267 267 268 268 269 269 270 271 272 273 273 273 274 275 275 276 277 277 278 279 281 282 282 283 283 284 285 286
263 263 263 263 263 263 262 262 262 262 263 263 263 263 263 263 264 265 265 265 266 266 267 268 269 269 270 270 270 270 270 270 270 270 271 271 271 271 271 271 272 272 272 272 271 269 267 267 267 267 267 267 267 267 267 267 266 266 266 266 267 267 268 269 270 270 271 271 272 273 273 274 274 275 276 276 277 278 279 280 281 283 283 284 285
263 262 262 262 262 262 262 262 262 262 262 262 262 263 263 263 263 264 264 264 265 265 266 267 268 268 269 269 269 269 269 269 269 270 270 270 270 270 270 271 271 271 271 270 269 267 266 266 266 265 266 266 266 266 266 266 266 266 266 266 266 267 267 268 269 269 270 270 271 271 271 272 273 274 274 274 275 276 277 278 280 281 282 283 283
262 261 261 261 261 261 261 261 261 262 262 262 262 262 262 262 262 262 263 263 263 264 265 266 267 267 268 268 268 268 268 268 269 269 269 270 269 269 270 270 270 270 269 268 266 265 265 265 265 265 265 265 265 265 265 265 265 265 265 265 265 266 266 267 268 268 269 269 270 270 270 271 272 272 272 273 273 274 275 276 278 280 281 281 282
261 261 261 261 261 261 261 261 261 261 261 262 262 262 262 262 262 262 262 262 262 263 264 264 265 265 266 266 266 267 267 267 268 268 268 269 268 269 269 269 268 268 267 266 264 264 264 264 264 264 264 264 264 264 264 264 264 264 264 265 265 265 266 266 267 268 268 268 268 268 269 270 270 270 271 271 272 273 274 275 277 278 279 279 280
261 261 261 261 260 260 260 260 261 261 261 261 261 261 261 261 261 261 261 261 261 262 262 262 263 263 264 264 265 265 266 266 267 267 267 267 267 268 268 267 266 265 265 264 263 263 264 263 263 263 263 263 263 263 263 263 263 264 264 264 264 265 265 266 266 267 268 268 267 267 268 268 269 269 270 270 271 272 272 274 275 276 277 277 278
261 261 261 261 260 260 260 260 261 261 261 261 261 260 260 261 261 261 261 261 261 261 261 261 262 262 262 262 263 264 265 265 266 266 266 266 266 267 266 265 264 263 263 263 263 263 263 263 262 262 262 262 262 262 263 263 263 263 263 264 264 265 265 265 266 267 267 267 267 267 267 267 268 268 269 269 270 271 271 272 273 274 274 275 276
260 261 261 261 260 260 260 260 260 260 260 260 260 260 260 260 260 261 260 260 260 260 261 261 261 261 261 261 262 262 263 264 264 264 264 265 265 265 264 263 262 262 262 262 262 262 262 262 262 262 262 262 262 262 262 262 262 263 263 263 264 264 265 265 266 267 267 266 266 266 266 266 267 267 267 268 269 270 271 271 272 272 273 274 275
260 260 261 261 260 260 260 260 260 260 260 260 260 260 260 260 260 260 260 260 260 260 260 260 260 260 260 261 261 261 261 262 262 263 263 263 263 262 262 262 262 262 262 262 262 262 261 261 261 261 261 261 261 261 261 261 262 262 262 263 263 264 264 265 266 266 266 266 266 266 266 266 266 266 267 267 268 269 270 270 271 271 272 273 273
260 260 260 260 260 259 259 259 260 259 259 259 259 259 259 260 260 260 260 260 259 259 259 259 260 260 260 260 260 260 260 261 261 261 261 261 261 261 261 261 261 261 261 261 261 261 261 260 260 260 260 260 260 260 261 261 261 262 262 262 262 263 264 265 265 265 266 265 265 265 265 265 266 266 266 266 267 268 269 269 270 270 271 272 273
260 260 260 259 259 259 259 259 259 259 259 259 259 259 259 259 259 259 259 259 259 259 259 259 259 259 260 260 260 260 260 260 261 261 261 260 260 260 260 260 260 260 261 261 261 260 260 260 259 259 259 260 260 260 260 260 261 261 261 261 262 263 263 264 265 265 265 265 264 264 265 265 265 265 266 266 267 267 268 269 269 270 271 271 272
260 260 260 259 259 259 259 258 258 258 258 258 259 259 259 259 259 259 259 258 258 258 258 259 259 259 259 259 259 260 260 261 261 260 260 260 260 260 260 260 260 260 260 260 260 260 260 259 259 259 259 259 259 259 259 260 260 260 260 261 261 262 263 263 264 265 265 264 264 264 264 264 265 265 265 266 266 267 268 268 269 269 270 271 271
259 259 259 259 259 259 258 258 258 258 258 258 259 259 259 259 258 258 258 258 258 258 258 258 258 259 259 259 259 259 260 260 260 260 260 259 259 259 259 259 259 259 259 259 260 260 259 259 258 258 258 258 258 259 259 259 259 259 259 260 261 261 262 263 264 264 264 263 263 263 263 264 264 265 265 265 266 267 267 268 268 269 270 270 271
259 258 258 258 258 258 258 258 258 258 258 258 258 258 258 258 258 258 258 258 258 258 258 258 258 258 258 258 259 259 259 259 259 259 259 259 259 259 259 259 259 259 259 259 259 259 259 258 257 257 257 257 258 258 258 258 258 258 259 259 260 260 261 263 264 264 263 262 262 262 263 263 264 264 265 265 266 266 267 267 268 269 269 270 270
258 258 258 258 257 257 257 257 257 257 257 258 258 258 258 258 258 257 257 257 257 257 257 257 258 258 258 258 258 258 258 258 258 258 258 258 258 258 258 258 258 258 258 258 258 258 258 257 257 257 257 257 257 257 257 258 258 258 258 258 259 260 261 262 263 263 262 262 262 262 262 263 263 264 264 265 265 266 267 267 268 269 269 269 270
258 258 257 257 257 257 257 257 257 257 257 257 257 257 257 257 257 257 257 257 257 257 257 257 257 257 257 258 258 258 258 258 258 258 258 258 258 258 258 258 258 258 258 258 258 258 258 257 256 256 256 256 256 257 257 257 257 257 258 258 259 259 260 261 262 262 262 261 261 261 261 262 263 263 264 264 265 266 267 267 268 268 269 269 269
257 257 257 256 256 256 256 256 257 257 257 257 257 257 257 257 256 256 256 256 256 257 257 257 257 257 257 257 257 257 257 257 257 258 257 257 257 257 257 257 257 257 257 257 257 257 257 256 256 255 255 256 256 256 256 257 257 257 257 258 258 258 259 260 261 261 261 261 261 261 261 262 262 263 263 264 265 266 266 267 268 268 268 269 269
257 256 256 256 256 256 256 256 256 256 257 257 256 256 256 256 256 256 256 256 256 256 256 257 257 257 257 257 257 257 257 257 257 257 257 257 257 257 257 257 257 257 257 257 256 256 256 256 255 255 255 255 255 256 256 256 256 257 257 258 258 258 259 259 260 261 261 261 261 260 261 261 262 262 263 264 264 265 266 267 267 268 268 268 268
256 256 255 255 255 255 256 256 256 256 256 256 256 256 256 255 255 255 255 256 256 256 256 256 256 256 256 256 256 257 256 256 257 256 256 256 256 256 256 256 256 256 256 256 256 255 255 255 255 254 254 254 255 255 256 256 256 257 257 257 258 258 259 260 260 260 260 260 260 260 260 261 261 262 263 263 264 265 266 267 267 267 267 267 267
255 255 255 255 255 255 255 256 256 256 256 256 255 255 255 255 255 255 255 255 255 255 255 255 256 256 256 256 256 256 256 256 256 256 256 256 256 256 256 255 255 255 255 255 255 255 255 255 254 254 254 254 254 255 255 255 256 256 257 257 258 259 259 260 260 260 260 260 260 260 260 261 261 262 262 263 264 265 266 266 267 267 266 266 266
255 255 254 254 255 255 255 255 255 255 255 255 254 254 254 254 254 254 254 254 254 255 255 255 255 255 255 255 255 255 255 255 255 255 255 255 255 255 255 255 255 254 254 254 254 254 254 254 254 254 254 254 254 254 255 255 256 256 257 257 258 258 259 260 260 260 260 260 260 260 261 261 261 262 262 263 264 265 265 266 266 266 266 266 266
255 254 254 254 254 255 255 255 255 254 254 254 253 253 253 253 253 254 254 254 254 254 254 254 254 254 254 254 254 254 254 254 254 254 254 254 254 254 254 254 254 253 253 253 253 254 254 254 254 254 254 254 254 254 254 255 255 256 257 257 257 258 259 260 260 259 259 259 260 260 261 261 261 262 263 263 264 265 265 266 266 266 266 266 265
254 254 254 254 254 254 254 254 254 253 253 253 253 253 253 253 253 253 253 253 253 253 253 253 253 253 253 253 253 253 253 253 253 253 253 253 253 253 253 253 253 252 252 253 253 254 254 254 254 254 254 254 254 254 254 255 255 256 256 257 257 258 258 259 259 259 259 259 260 260 261 261 261 262 263 263 264 265 265 265 266 266 265 265 265
Wind_Speed
25 27 28 28 28 27 27 27 26 27 29 28 27 30 33 34 34 33 32 33 33 33 33 33 33 32 30 30 30 29 29 29 28 27 27 27 28 28 26 25 25 26 27 28 27 26 26 27 28 29 29 29 29 28 27 27 28 29 29 29 28 28 27 21 12 11 18 23 25 27 28 28 29 28 26 26 27 27 27 27 27 27 26 25 25
24 26 28 28 28 27 26 27 26 26 27 24 24 28 32 33 32 32 33 33 33 33 34 33 32 31 30 30 30 30 29 29 28 27 27 27 28 26 23 24 26 28 29 28 27 27 27 28 28 28 28 29 30 30 29 28 27 28 28 28 28 28 27 25 19 13 14 20 23 25 26 25 26 28 27 27 29 26 25 27 27 26 26 27 27
23 25 28 28 27 27 27 27 27 28 27 23 24 29 32 31 30 30 31 32 32 33 33 33 32 31 30 30 30 30 30 29 28 27 26 27 27 24 22 26 30 29 27 27 27 27 27 28 28 27 27 28 30 30 29 29 28 28 28 27 27 28 28 28 24 17 14 18 22 24 24 25 27 29 29 30 30 28 27 29 30 29 30 31 31
23 26 28 28 27 26 27 27 27 28 26 24 27 32 33 31 30 30 30 31 31 32 32 32 31 31 30 30 31 30 30 29 28 27 27 26 25 23 23 26 27 25 24 26 26 26 27 27 28 28 28 29 29 29 28 29 29 29 29 29 27 27 28 28 27 25 20 19 22 24 25 26 28 29 30 31 32 32 31 32 33 34 35 34 33
24 27 29 28 27 27 26 26 27 28 25 25 30 34 33 31 31 31 31 31 32 32 32 31 30 30 30 30 31 31 30 30 29 28 27 25 24 25 25 25 24 24 24 24 24 25 26 27 28 28 27 28 29 29 28 28 28 28 29 29 28 27 28 28 28 28 24 20 21 24 24 25 26 27 27 28 29 31 33 34 35 36 37 36 35
26 29 29 28 27 27 26 27 27 27 25 27 32 33 32 31 32 32 32 32 33 32 32 31 30 30 29 29 30 30 30 29 29 29 27 26 26 27 26 25 24 24 24 24 24 25 25 27 28 28 27 27 28 28 28 28 30 30 30 31 30 29 29 29 29 28 27 26 25 25 24 25 26 26 27 27 27 29 32 34 35 36 36 36 36
28 29 28 27 27 26 26 27 27 26 27 30 32 32 31 31 32 32 32 32 32 32 32 32 31 30 30 31 30 30 30 29 29 28 26 27 29 29 27 26 26 25 25 25 25 25 26 27 27 27 27 26 26 27 29 30 32 33 34 34 33 32 31 30 29 27 26 26 26 25 26 26 26 28 30 29 27 28 30 28 27 32 35 34 35
29 29 27 27 27 26 27 26 26 27 29 31 32 32 32 32 32 32 32 31 31 31 31 31 31 30 30 30 30 30 30 30 29 27 27 29 30 29 28 27 28 28 27 26 26 27 27 27 26 27 27 27 29 32 32 31 31 33 34 32 31 31 31 30 30 27 25 24 23 24 24 24 24 26 28 26 22 24 29 27 23 29 34 33 34
28 27 26 26 26 26 26 26 27 28 29 30 31 32 34 34 33 33 33 32 31 31 30 30 30 30 29 29 29 29 29 29 28 28 29 30 30 29 28 28 28 29 30 29 28 28 28 28 27 27 28 30 32 33 31 30 30 32 33 32 31 30 29 28 27 26 25 23 22 24 22 21 22 23 21 22 21 22 27 28 25 29 33 32 32
26 25 25 25 25 25 26 26 27 28 28 29 31 32 33 34 34 34 34 33 33 32 31 30 30 29 29 29 29 28 27 27 27 28 29 30 31 30 30 29 28 28 30 30 29 29 30 30 29 29 30 31 30 29 29 30 31 32 32 32 32 31 30 29 25 23 23 20 21 22 17 16 23 24 20 21 23 22 23 23 21 23 24 21 23
24 24 24 24 23 24 25 26 27 27 28 29 30 31 32 32 33 33 33 34 35 34 33 33 31 30 29 29 29 29 28 27 28 29 29 29 31 31 31 31 29 28 29 29 29 32 33 31 30 29 29 28 29 31 32 32 31 30 30 30 30 29 30 29 27 26 24 21 21 22 17 17 24 27 23 22 22 20 18 17 16 16 15 10 11
23 23 23 22 23 24 25 26 27 27 27 29 30 30 30 30 31 31 32 33 34 34 34 33 33 32 30 30 30 30 29 29 29 29 29 30 30 31 31 31 30 29 29 28 29 32 32 30 29 28 28 30 32 33 32 31 29 28 29 31 32 33 31 30 30 30 28 25 24 24 22 22 24 26 24 21 20 19 19 18 16 15 13 9 8
21 21 21 21 23 24 25 26 26 27 28 29 30 30 29 29 30 30 31 32 32 32 32 32 32 32 32 32 32 32 32 32 29 29 30 30 30 31 32 31 31 30 29 28 28 29 28 27 28 29 31 31 30 30 32 33 33 33 33 35 35 34 32 30 31 32 33 32 30 30 30 27 25 27 27 22 20 22 21 20 20 19 17 16 16
20 19 19 20 22 24 25 26 26 27 29 30 30 29 28 29 29 30 31 32 31 31 31 31 31 31 31 32 33 34 35 33 31 30 31 31 31 32 31 30 30 29 28 28 27 25 24 25 27 29 30 28 28 32 35 37 36 35 34 33 32 31 30 29 29 30 32 34 34 36 36 33 30 31 34 31 28 27 26 24 23 23 25 26 26
18 18 18 19 21 23 24 25 24 26 29 29 29 28 29 29 29 30 30 30 30 29 29 29 30 30 30 30 31 33 34 33 31 31 32 32 31 30 28 26 26 25 25 25 25 24 24 25 26 28 30 30 31 32 33 34 35 34 34 33 32 30 29 28 27 26 28 31 33 35 36 35 33 32 33 33 30 28 29 29 27 25 26 26 25
18 18 18 19 21 23 23 23 24 27 28 28 28 29 29 29 30 30 30 30 29 28 28 28 28 28 29 28 28 29 32 31 31 31 32 32 30 27 26 26 26 25 26 27 27 27 27 28 29 30 31 31 31 29 30 33 35 35 34 34 32 30 29 28 27 26 28 30 32 34 35 36 37 35 36 36 34 30 29 28 28 26 21 17 17
17 18 18 19 22 23 22 22 24 26 27 26 27 29 29 29 30 29 29 30 29 28 28 27 26 26 26 27 26 27 30 31 30 30 30 29 27 26 26 26 25 25 27 29 29 30 30 30 30 30 30 29 29 29 31 33 34 34 33 32 31 30 29 29 29 27 28 29 31 32 33 35 35 34 33 33 32 31 27 24 26 25 16 9 10
18 19 19 21 23 23 22 22 24 25 25 25 27 28 28 29 29 29 28 28 27 27 26 26 26 25 25 26 26 26 28 29 28 29 29 27 26 27 26 25 24 24 26 28 29 30 29 29 28 28 28 28 29 30 32 33 32 31 30 31 31 30 30 31 31 29 29 30 29 29 32 34 34 31 29 27 25 24 21 21 25 24 15 9 10
19 20 21 23 23 22 22 24 25 25 25 27 26 26 27 28 29 29 27 26 25 25 24 24 26 26 24 25 26 25 26 28 27 27 27 27 26 27 27 25 25 26 27 28 29 29 27 27 27 27 27 29 30 32 32 33 32 31 31 31 29 29 31 33 34 34 34 35 32 31 33 35 36 35 33 32 31 28 26 26 26 24 17 14 14
19 20 22 23 23 23 24 25 25 25 27 28 28 27 27 27 27 27 25 24 23 24 24 24 26 27 25 24 25 24 24 26 27 26 26 26 26 26 25 24 25 27 27 27 28 28 28 27 27 27 29 30 32 33 34 34 34 34 32 29 28 30 35 38 39 38 38 38 36 34 34 34 35 34 32 33 33 31 31 29 29 28 24 20 19
20 21 22 23 23 25 26 25 26 27 27 27 28 29 27 25 25 25 24 24 24 25 25 24 25 26 24 23 23 23 23 24 26 26 25 24 25 25 24 25 26 27 27 27 27 28 28 28 28 29 31 33 34 36 36 36 36 34 32 30 30 33 36 38 38 36 35 34 32 32 32 31 30 29 28 29 29 27 27 27 28 30 28 25 23
21 21 22 23 25 26 27 26 26 27 27 27 28 30 28 25 24 24 24 25 25 26 26 25 24 25 24 22 22 22 22 23 25 25 24 24 25 25 25 26 27 27 26 27 27 27 28 29 30 31 33 35 37 38 38 37 36 34 32 32 33 34 34 34 34 33 32 32 30 29 29 27 27 27 27 27 26 25 27 27 28 29 29 29 29
21 21 21 24 25 26 27 26 26 27 27 27 27 27 27 26 25 25 24 25 25 25 25 23 24 25 25 23 21 21 22 23 24 24 24 24 25 27 27 27 27 26 26 26 28 28 28 29 30 33 36 38 38 38 38 37 34 31 31 32 32 32 31 30 30 30 30 30 28 27 27 26 26 27 27 26 25 24 25 24 24 24 23 24 26
20 20 22 23 25 26 25 26 27 27 26 26 26 27 27 26 26 25 23 23 23 24 24 23 23 24 24 24 23 22 22 23 23 23 24 25 27 29 28 28 28 27 27 27 28 28 29 31 33 35 37 37 37 36 35 32 30 29 31 32 30 29 28 26 26 26 26 25 23 21 22 22 22 22 22 21 19 18 18 18 18 19 21 23 25
20 20 22 22 24 25 26 26 27 26 24 24 25 26 27 26 26 24 23 22 23 24 23 23 23 23 23 24 24 24 24 24 24 23 24 26 29 29 28 28 28 28 28 28 28 29 31 32 33 34 35 34 33 31 29 27 28 30 30 28 27 26 25 24 23 23 22 21 20 19 20 22 22 22 22 21 19 18 18 20 22 24 25 26 27
20 21 22 23 24 24 25 27 27 25 24 24 24 24 25 25 25 25 24 24 25 24 24 23 22 22 23 24 26 27 27 26 25 24 26 29 30 29 28 28 28 28 29 29 29 30 31 31 31 33 32 30 28 26 27 28 29 28 26 25 25 24 23 23 23 22 21 20 19 20 22 24 25 25 25 23 22 20 19 19 20 22 22 21 20
21 22 23 24 24 23 24 25 25 25 25 25 24 24 24 23 24 25 24 25 26 24 23 22 22 22 24 25 27 29 28 26 24 24 27 30 30 29 29 29 29 29 29 29 29 30 30 29 30 30 28 26 24 24 25 26 26 25 25 25 25 24 23 23 23 21 20 19 20 21 23 24 24 24 23 22 21 19 16 16 17 17 17 17 17
21 23 24 24 23 23 23 23 25 26 26 26 25 25 24 23 24 25 24 25 26 25 24 24 24 24 25 26 27 28 27 24 23 25 28 30 30 30 30 30 30 29 28 30 30 29 29 29 28 26 24 24 24 23 24 24 25 25 26 26 26 25 24 23 21 20 19 20 22 22 22 22 21 21 22 22 20 19 17 16 16 17 16 15 13
22 24 25 24 23 23 23 24 25 26 27 27 26 25 24 23 24 26 26 24 24 26 27 28 28 28 28 27 27 27 28 26 26 28 29 30 30 31 31 31 31 30 29 30 29 27 27 27 25 23 23 23 23 23 23 24 25 25 25 26 25 25 24 22 21 20 21 21 22 21 20 20 20 20 20 20 20 20 19 18 17 17 17 15 13
24 25 24 23 22 22 23 25 25 25 25 27 27 28 26 22 21 24 26 25 24 25 27 29 30 30 31 30 28 28 30 31 31 30 30 30 29 29 30 30 30 29 29 28 26 24 25 24 22 22 22 22 21 21 22 23 24 25 25 25 25 23 22 22 21 22 22 22 20 19 20 19 19 18 19 19 20 21 21 20 19 17 16 13 11
25 24 22 22 22 22 23 25 25 24 25 26 27 28 29 28 24 22 22 23 24 25 26 28 29 29 29 31 32 30 29 30 31 31 30 30 29 29 30 30 27 26 26 25 23 22 22 21 20 21 21 20 20 20 21 22 23 24 25 25 24 23 22 21 22 24 24 22 20 20 20 19 18 17 18 19 19 20 20 20 19 17 15 13 10
24 23 22 22 22 23 24 24 24 24 25 25 25 26 28 30 30 26 22 20 22 24 25 26 27 27 27 29 31 31 29 29 30 30 30 29 29 29 30 28 25 24 24 22 21 21 21 20 19 20 20 20 20 21 22 22 22 23 23 23 23 23 23 23 24 24 23 21 21 21 20 19 18 18 19 19 19 19 19 19 17 16 14 13 11
23 22 22 23 23 24 24 23 23 23 24 24 25 25 25 26 29 31 30 27 24 22 22 22 24 27 28 28 28 29 30 30 30 29 29 29 30 30 28 25 23 22 21 20 19 20 20 19 19 19 19 20 21 22 22 22 22 23 22 21 22 24 25 25 25 23 21 20 21 21 20 20 20 19 19 18 18 18 18 18 17 15 13 12 10
22 21 22 22 23 24 24 23 23 23 23 23 25 25 26 26 26 28 31 31 29 26 24 23 23 25 27 29 29 29 29 29 28 28 29 29 30 29 27 25 23 22 21 20 18 19 18 18 19 20 20 21 22 22 22 22 23 23 23 23 24 25 25 25 24 21 20 21 22 21 20 20 20 19 19 18 18 17 17 16 16 14 13 11 11
21 21 21 21 22 22 22 23 23 23 24 25 26 26 26 26 26 26 26 27 28 30 30 29 27 25 26 28 29 28 29 29 29 29 29 29 29 28 27 26 25 24 24 23 21 20 19 19 20 20 21 22 22 22 23 23 23 23 24 24 25 25 26 25 23 21 21 22 22 21 20 20 20 19 19 19 17 16 16 15 15 14 13 12 12
21 20 21 21 21 21 22 23 24 25 26 27 26 26 26 25 25 25 25 25 27 29 31 32 32 30 27 25 25 26 27 28 29 29 28 27 27 27 26 25 24 23 23 24 23 22 22 21 21 22 22 23 23 23 24 24 24 24 24 24 24 25 25 24 22 22 22 22 22 22 22 22 21 20 20 19 17 16 16 16 16 15 15 14 12
19 19 21 21 21 22 23 24 25 26 27 26 26 26 26 26 25 25 25 25 26 27 29 31 33 32 30 28 26 26 27 28 28 27 26 25 26 25 24 24 23 23 23 23 23 23 23 24 23 24 24 24 24 24 25 24 24 24 25 25 25 24 23 22 22 23 23 22 22 23 23 22 22 21 20 19 18 17 16 16 16 17 16 15 13
17 18 20 20 21 22 24 25 26 27 26 26 26 26 26 26 25 25 25 25 26 27 28 29 29 29 30 31 31 30 29 27 26 26 26 27 27 26 26 24 23 23 23 23 23 23 24 25 25 25 25 25 25 25 25 25 25 25 25 26 26 24 23 22 22 22 21 22 23 24 24 23 23 22 20 19 18 17 17 17 17 16 16 15 13
17 18 19 19 21 22 24 25 26 26 26 26 26 26 26 26 25 25 25 26 26 26 27 27 27 27 29 31 32 31 28 25 23 24 27 28 28 27 26 26 25 24 23 24 24 24 24 25 26 26 25 26 26 26 25 25 25 26 26 26 26 25 23 23 23 22 21 22 24 26 26 25 24 24 22 20 19 18 18 18 18 16 15 15 14
18 18 20 21 23 24 25 25 26 26 26 26 25 25 25 25 25 26 26 26 26 26 26 26 27 28 29 30 30 28 26 24 23 24 26 27 27 26 25 26 26 26 25 25 24 24 24 26 28 27 26 26 26 26 25 25 25 26 25 24 24 24 24 24 23 21 20 22 24 26 27 26 25 24 23 21 20 20 19 19 18 17 17 16 15
19 20 21 23 24 25 25 26 27 26 26 26 25 25 25 26 26 26 25 25 26 26 26 26 27 29 29 28 27 26 25 25 25 26 26 26 26 26 25 25 26 27 27 26 26 24 24 26 28 27 26 26 26 26 26 26 26 25 25 24 24 24 24 24 23 20 20 22 26 27 27 26 25 23 22 22 21 21 20 19 19 18 17 17 16
20 21 23 25 26 26 26 27 28 27 26 26 26 26 26 26 25 25 25 26 26 26 27 27 28 29 29 27 25 24 24 25 26 26 26 26 26 26 26 26 25 26 27 27 27 26 25 26 28 28 27 26 26 26 26 26 26 26 25 25 24 24 24 24 21 20 21 24 27 28 27 25 24 23 23 22 22 21 21 20 19 18 17 16 16
19 21 24 26 26 26 26 27 27 27 27 27 26 26 26 26 26 26 26 26 26 26 26 28 28 29 29 28 26 25 25 26 27 27 26 27 27 27 27 26 26 26 26 27 27 26 26 27 28 28 27 26 25 25 25 25 26 26 25 25 24 23 23 22 21 20 23 26 28 28 26 24 24 24 24 23 22 21 21 20 19 18 17 16 16
19 22 25 26 27 26 26 26 26 26 26 26 26 26 26 26 27 27 27 27 27 26 26 27 28 28 29 29 28 26 26 27 27 27 27 27 27 27 27 27 27 26 27 27 27 27 27 28 28 28 27 26 25 24 24 24 24 24 24 24 23 22 22 22 22 22 25 27 28 27 26 25 25 25 24 23 22 21 20 19 19 17 16 16 15
21 23 25 26 26 26 26 26 26 26 26 26 26 26 27 27 28 28 27 27 27 26 26 27 28 28 28 29 28 27 27 27 27 27 27 27 27 28 28 28 27 27 27 27 27 28 29 28 28 27 27 27 25 25 24 24 23 22 22 23 23 23 23 22 22 23 25 27 27 26 26 25 25 25 24 23 23 21 20 19 18 17 16 15 14
21 23 25 26 26 26 26 26 25 25 25 25 26 26 26 27 27 28 27 27 26 26 26 27 27 27 28 28 27 27 27 27 27 27 27 27 27 28 28 28 28 27 26 26 27 28 29 29 28 27 27 27 26 25 24 24 23 22 21 21 21 22 21 20 21 23 24 25 26 26 25 25 25 25 24 23 22 21 20 19 18 16 16 15 14
21 23 24 25 25 26 26 25 25 25 25 25 25 25 26 27 27 27 27 27 27 26 26 26 26 27 27 27 27 27 27 27 28 28 28 28 27 27 27 27 27 27 27 27 28 28 29 29 29 27 26 26 25 25 24 23 23 22 21 21 21 19 18 19 21 23 23 24 25 25 24 24 25 25 24 23 22 21 20 18 17 16 15 15 14
23 24 24 24 24 25 25 25 24 24 24 24 25 25 26 26 26 27 27 27 27 26 26 26 26 26 26 26 27 27 27 27 28 28 28 28 27 27 27 27 26 27 28 28 28 29 29 30 29 27 26 24 24 24 24 23 22 22 21 20 19 17 18 20 21 22 23 25 25 24 23 23 24 24 24 24 23 21 20 18 16 15 15 15 14
24 23 23 23 23 24 24 24 24 25 25 25 26 26 26 26 26 27 27 26 26 26 26 26 25 26 26 26 26 26 27 27 28 28 28 28 28 27 26 26 26 26 27 28 29 29 30 28 27 26 25 23 23 23 23 22 22 21 20 19 19 19 20 20 20 21 23 25 24 21 21 22 22 23 23 23 21 20 19 18 16 15 15 15 15
23 22 22 23 23 24 25 24 25 26 26 26 26 26 26 26 26 26 26 26 26 26 25 25 25 26 26 26 26 26 26 26 27 27 28 28 27 26 26 26 27 27 27 28 29 30 28 26 25 25 24 23 22 22 22 21 21 20 20 21 22 22 21 20 20 22 24 23 21 19 19 20 21 22 22 20 19 19 18 16 15 15 14 15 15
23 23 23 24 24 25 25 25 26 27 27 26 26 26 25 25 26 26 26 26 26 26 26 26 26 26 26 26 26 26 26 26 26 26 27 27 26 26 26 27 27 28 28 29 29 28 27 25 24 24 23 22 22 21 21 20 19 19 21 23 22 20 19 20 21 23 23 21 18 18 18 19 21 21 20 18 18 17 15 15 15 14 13 14 15
Wind_Direction
1 359 358 356 354 354 352 351 351 350 349 350 350 349 349 347 346 344 342 342 341 340 340 340 340 339 337 337 337 338 337 338 338 337 334 333 332 331 331 332 333 331 330 328 327 325 321 318 315 313 312 310 307 303 298 292 286 279 274 270 266 262 259 255 257 271 266 260 261 265 269 271 272 271 270 269 269 272 273 274 275 276 275 274 275
357 355 354 353 351 350 349 348 348 346 346 347 347 347 346 344 344 342 340 339 338 337 337 337 337 337 336 335 335 336 335 335 336 335 333 332 331 330 331 331 330 329 327 326 326 325 322 318 315 314 313 309 305 304 304 303 299 291 283 277 272 269 265 262 261 266 270 265 261 262 263 262 263 265 265 267 270 269 269 270 269 268 270 275 276
354 352 351 349 347 347 346 346 346 346 345 345 345 345 343 342 341 339 336 336 335 334 334 334 334 333 333 333 334 334 333 333 334 333 332 331 330 330 329 326 325 325 324 323 323 323 321 318 316 317 317 313 308 306 305 303 302 299 294 287 281 277 274 270 267 268 273 272 266 262 261 258 256 260 263 266 268 268 267 266 265 265 270 273 273
351 350 349 347 345 346 345 346 346 346 345 345 344 343 341 340 339 337 334 333 332 331 331 331 331 331 330 331 332 332 332 332 331 330 330 329 327 327 326 324 323 323 322 321 322 322 320 317 316 317 317 315 312 310 308 306 303 301 299 296 292 288 284 279 274 271 272 274 271 267 265 263 261 261 263 264 265 265 265 265 267 269 271 272 271
350 348 347 345 345 345 345 346 346 346 345 343 341 340 340 339 338 336 335 333 332 331 330 329 329 328 327 328 328 329 329 329 329 328 328 328 326 324 323 322 321 321 319 318 319 319 318 315 314 315 315 313 312 312 311 311 310 307 304 302 300 299 295 290 286 282 279 278 277 274 271 269 268 265 263 261 262 264 265 266 269 271 272 272 269
348 346 346 345 344 344 345 345 345 345 344 341 339 339 339 338 337 336 335 333 331 331 331 329 327 326 325 325 325 325 326 326 326 326 325 325 325 324 322 320 319 318 318 317 317 316 316 315 314 314 313 310 309 311 312 314 315 314 312 309 308 307 304 298 294 290 286 282 281 280 277 273 271 270 267 266 266 267 268 269 269 269 269 269 269
346 345 345 344 344 344 344 344 344 344 341 338 338 339 339 338 337 336 335 334 332 331 330 329 327 325 323 323 323 323 324 324 323 324 324 323 323 322 320 319 319 318 316 316 316 316 315 314 314 313 312 311 312 315 317 317 315 312 310 309 309 308 306 302 298 295 290 284 280 277 275 273 270 269 270 270 268 266 266 267 268 268 266 266 268
344 344 344 343 343 343 343 343 343 341 338 337 338 338 338 338 337 336 336 335 334 332 330 328 326 324 323 322 322 322 322 322 322 322 322 321 321 320 318 318 318 317 316 315 315 316 315 313 313 312 311 312 314 315 316 315 312 308 306 308 309 307 303 300 297 294 290 286 282 278 276 274 269 267 268 266 261 259 260 260 260 263 266 265 266
342 342 342 341 342 342 342 342 340 338 337 337 337 338 338 337 337 336 336 335 334 332 331 329 326 324 323 321 321 321 321 320 320 320 319 319 319 317 315 314 314 314 314 314 314 315 315 314 313 312 312 311 311 311 311 310 309 309 308 308 308 305 302 299 295 291 287 284 281 279 279 275 270 266 264 257 251 254 259 258 256 258 262 264 264
340 340 340 339 340 341 340 339 338 337 337 336 336 336 336 336 336 336 335 334 334 333 331 329 327 325 323 322 321 320 319 317 316 316 316 316 316 315 314 312 312 312 312 313 314 315 315 313 312 312 312 311 312 312 311 309 308 307 306 304 301 298 296 294 292 290 287 283 278 276 274 272 270 267 264 262 261 263 264 262 261 262 264 265 265
338 337 338 339 339 340 339 338 337 336 336 335 335 334 334 333 333 333 333 333 332 332 330 328 328 326 323 322 321 319 317 316 315 315 314 315 315 314 312 311 310 310 310 310 312 314 313 311 312 313 314 316 317 315 312 309 306 304 302 301 302 300 296 291 288 287 286 284 282 279 274 270 271 271 272 275 276 276 273 272 275 277 276 275 272
336 336 337 338 338 339 338 336 335 334 334 334 333 333 332 331 331 331 330 331 330 329 328 326 326 325 323 322 320 319 317 315 316 316 315 315 315 314 312 311 309 307 306 306 310 312 309 309 313 316 317 318 316 313 311 310 309 308 307 308 308 306 301 295 291 287 285 282 278 276 275 275 277 277 278 280 284 284 283 283 287 288 284 276 268
334 334 335 335 336 337 336 334 333 333 333 332 331 331 331 330 330 329 328 328 327 326 325 324 323 322 323 322 320 319 317 316 317 318 317 317 317 316 312 309 306 303 302 303 306 306 306 310 315 316 316 316 316 317 318 317 314 312 309 307 305 302 298 294 291 289 288 285 278 272 272 273 276 279 280 283 290 293 291 288 288 288 284 278 273
331 331 331 332 334 334 334 333 331 330 331 331 330 330 330 328 327 327 327 326 325 323 322 321 320 320 320 320 319 318 317 317 319 319 319 319 318 316 314 312 310 309 309 307 305 306 310 314 316 315 315 316 317 318 317 314 311 308 305 303 299 296 294 292 290 289 288 286 281 278 277 275 273 274 276 278 279 281 282 282 282 282 279 276 275
328 327 327 330 332 333 332 330 329 329 329 330 329 328 328 327 326 326 325 323 322 321 319 318 317 317 317 317 317 316 315 317 320 320 321 321 320 323 328 329 327 326 325 321 317 318 320 319 316 315 313 313 313 313 312 311 310 307 304 302 298 294 292 290 290 290 287 284 281 282 283 282 279 278 279 278 275 270 269 271 272 274 274 275 276
325 326 327 329 331 331 331 328 326 327 328 328 327 327 326 325 325 325 324 321 320 319 318 317 315 314 315 315 314 313 314 316 319 321 322 321 324 334 342 339 335 332 328 326 323 321 319 317 315 313 310 310 310 311 312 313 311 308 306 304 301 298 294 291 291 290 288 286 284 283 284 284 283 284 283 282 281 278 276 275 274 275 275 277 276
325 326 325 326 329 330 329 327 325 326 327 326 325 325 324 323 323 324 323 320 319 318 316 315 312 311 312 313 313 312 312 315 319 320 321 322 330 341 342 337 334 330 325 323 321 318 317 316 315 312 309 309 309 311 314 314 311 308 306 305 305 302 298 296 295 292 288 286 285 284 284 283 283 284 283 282 282 282 281 278 275 274 273 268 270
324 325 323 323 327 329 328 326 325 325 325 324 323 323 322 322 322 322 321 317 314 313 313 312 310 310 310 310 311 311 310 313 317 319 319 322 332 342 341 335 332 329 325 322 319 317 316 315 314 311 309 308 309 311 315 314 311 308 306 305 305 302 300 300 299 297 294 290 286 284 283 283 285 287 286 284 284 283 280 274 271 272 268 253 259
323 322 320 321 324 324 325 325 324 324 323 322 321 321 320 320 320 320 319 315 311 310 311 309 308 308 309 309 310 312 312 313 317 319 319 320 329 340 340 334 331 327 324 320 318 317 316 313 312 311 310 311 311 312 313 314 311 307 304 303 302 300 301 302 301 299 296 292 289 285 282 282 283 283 283 283 281 279 278 274 271 269 264 254 257
320 318 316 318 319 319 321 323 323 323 322 322 321 320 319 320 320 319 316 312 310 309 309 308 306 306 308 310 311 312 313 314 316 319 321 321 326 335 337 331 327 324 321 318 317 316 315 313 313 313 314 314 313 311 312 311 309 306 303 302 301 300 300 300 297 295 292 289 287 284 282 282 280 279 279 278 276 273 270 268 264 260 257 256 255
316 315 314 314 313 315 318 320 321 322 322 321 320 319 319 319 316 315 313 310 309 308 307 308 306 305 307 309 310 313 314 315 317 319 321 322 325 331 332 326 324 322 319 317 315 315 315 314 313 313 315 315 314 312 311 310 308 307 305 302 299 297 298 298 297 297 294 291 289 285 282 281 278 276 275 273 271 268 263 261 259 255 251 250 250
314 314 311 309 310 312 316 318 320 321 322 321 320 318 319 318 314 313 312 310 309 308 307 308 307 306 308 309 310 312 314 316 317 317 320 322 325 328 327 323 323 322 319 316 314 314 313 312 311 312 314 314 313 312 311 310 310 308 305 303 301 301 303 304 304 303 299 294 291 286 283 280 276 275 274 270 267 265 261 258 256 254 250 248 248
312 309 306 306 309 311 314 316 319 321 321 321 319 315 315 315 314 313 312 310 309 308 308 309 309 308 309 310 311 313 315 316 317 318 320 322 324 325 324 322 322 322 319 315 314 313 311 311 311 312 313 313 313 312 312 311 310 309 308 309 311 312 313 311 307 303 299 293 287 280 277 275 271 269 267 263 261 262 261 257 254 254 253 252 251
309 305 304 306 309 312 313 314 318 320 321 320 317 313 313 312 311 312 312 309 308 308 308 310 310 309 309 310 312 314 316 316 316 317 320 322 322 323 322 321 322 322 318 315 313 311 311 311 311 312 313 313 313 312 312 312 313 315 315 316 319 321 320 316 311 309 306 302 295 289 286 284 279 273 270 269 269 269 270 271 270 269 270 271 270
305 304 305 305 309 312 311 313 316 319 319 317 313 311 312 311 309 310 310 308 308 308 308 309 308 307 307 310 312 314 316 316 315 316 319 320 320 320 319 320 321 321 319 315 313 311 311 311 312 314 314 314 315 315 316 318 319 319 318 320 324 325 322 319 316 313 310 308 307 307 307 307 305 301 301 301 300 296 293 291 285 280 278 276 274
302 303 305 306 308 308 308 311 316 317 315 313 311 310 309 307 305 306 306 306 306 305 305 306 306 305 305 308 310 313 314 314 313 315 318 319 317 317 318 320 321 320 319 316 313 313 314 315 316 317 316 316 318 318 320 321 321 321 323 325 326 325 323 321 318 313 311 312 316 319 319 318 316 314 313 312 307 302 300 296 289 283 278 274 273
301 304 306 307 307 306 307 311 313 314 312 312 310 309 307 305 302 302 303 304 304 303 302 303 303 303 303 305 307 309 310 310 311 315 318 317 315 316 320 321 321 321 319 317 317 317 318 319 319 318 317 318 320 320 321 322 324 325 327 327 327 325 322 319 315 313 314 319 324 323 321 320 320 319 318 314 307 302 301 299 295 291 287 280 274
301 304 306 307 305 304 307 309 310 310 310 310 309 308 307 305 301 298 299 301 300 299 299 299 299 300 300 302 305 307 307 307 310 314 316 316 316 319 321 322 321 321 320 320 321 321 321 323 323 323 324 325 325 326 326 327 329 329 329 329 328 327 326 324 321 320 323 326 325 321 321 323 324 323 321 318 312 308 306 302 298 296 297 292 281
302 304 305 304 303 304 306 307 308 308 308 308 308 306 304 302 299 298 298 298 295 295 296 297 298 299 300 301 305 308 307 307 310 313 314 315 316 318 320 320 320 320 320 322 324 325 326 328 329 330 330 330 330 330 330 331 331 332 332 332 331 329 330 330 328 326 327 327 324 321 323 324 323 322 323 321 318 317 314 308 300 295 292 287 276
303 304 304 302 301 303 306 307 308 309 308 307 308 307 305 301 296 294 297 298 296 294 294 295 297 300 302 303 305 305 304 306 310 313 314 314 315 317 318 318 318 319 321 324 328 329 330 331 331 331 331 331 330 330 330 331 331 330 331 332 331 330 330 329 327 327 327 325 323 323 323 321 319 322 324 320 317 317 316 311 303 296 290 284 275
302 302 300 299 299 302 305 307 308 308 307 306 307 307 308 307 303 297 294 297 300 299 297 297 299 301 303 305 307 306 305 307 311 314 315 315 317 318 319 318 318 321 325 328 331 332 331 329 328 328 329 328 328 328 328 327 327 327 329 330 330 330 329 328 327 328 327 326 325 325 323 320 319 322 322 319 316 315 315 313 309 305 303 302 300
299 297 295 295 298 302 304 305 305 305 306 307 307 307 308 309 309 307 303 299 301 303 302 301 302 304 306 308 309 309 310 311 313 315 316 317 319 320 319 319 322 326 328 331 333 333 331 328 326 326 326 325 324 325 326 325 325 325 325 325 327 328 327 326 327 327 327 327 328 327 324 323 323 324 322 320 318 316 314 312 310 310 312 312 312
296 294 293 295 298 302 302 302 303 303 304 306 307 307 307 307 308 310 310 309 307 305 303 303 305 307 309 311 311 311 312 313 315 317 318 320 322 322 321 322 327 329 330 331 331 329 328 327 324 323 323 323 323 324 324 324 324 323 323 322 322 323 324 325 326 326 327 330 330 328 326 326 326 325 323 322 320 317 314 312 311 313 316 314 311
294 291 292 295 298 300 300 301 300 301 302 303 303 304 304 303 304 306 309 313 314 313 310 309 308 309 311 312 313 314 314 316 317 318 320 322 324 324 323 324 328 331 331 332 330 326 325 325 323 322 322 322 323 323 323 323 323 322 322 321 321 322 325 326 326 326 328 331 331 329 329 329 327 326 325 323 321 317 315 315 316 319 320 317 313
294 292 294 296 297 297 298 299 298 298 299 301 301 301 300 301 301 302 303 307 310 311 311 311 312 312 311 311 312 315 316 318 318 319 321 323 326 328 327 326 328 330 331 330 328 326 324 324 322 322 322 321 322 322 321 321 322 321 321 322 322 323 325 325 325 327 330 331 332 332 331 330 329 328 325 322 319 318 317 318 319 320 318 315 313
293 294 296 299 298 297 296 296 296 297 299 300 300 300 298 298 298 298 299 300 301 303 306 309 311 312 311 310 311 314 316 317 318 318 320 322 326 329 329 325 324 325 324 324 324 324 323 322 321 321 320 319 320 321 320 320 320 321 322 322 322 322 324 324 326 329 330 331 331 332 332 331 330 330 328 322 319 317 317 317 318 318 317 317 315
290 293 299 302 304 302 300 298 297 298 299 299 298 297 296 296 296 295 296 297 299 301 303 306 310 312 313 313 315 316 316 316 315 315 317 320 323 326 325 321 319 319 318 319 320 321 321 321 321 320 319 318 318 320 320 320 320 321 322 323 323 322 322 324 327 329 330 332 333 332 332 332 331 331 328 323 319 317 317 320 320 317 316 318 317
287 296 303 305 305 301 299 297 298 299 298 297 296 296 295 295 295 295 295 296 298 300 301 304 306 308 309 312 316 318 317 316 315 316 318 321 323 325 323 320 318 317 315 315 317 317 318 320 321 320 319 318 318 319 320 320 321 322 323 324 324 323 323 324 327 328 330 334 335 334 332 331 331 330 328 323 319 317 318 322 321 316 315 319 317
286 298 304 305 302 299 296 295 296 297 296 295 295 294 293 293 294 295 296 297 298 298 300 301 302 303 305 310 315 318 318 317 316 316 318 319 320 321 321 319 318 317 315 315 316 316 317 319 320 321 319 317 317 318 319 320 320 321 323 324 324 323 324 325 325 327 331 335 336 335 333 331 329 330 329 325 322 320 320 322 321 317 316 317 316
287 296 302 306 305 302 299 298 296 294 294 293 293 292 291 291 293 294 295 296 296 297 298 299 298 300 304 308 312 315 315 313 313 314 314 315 316 317 318 317 317 316 316 316 316 316 316 318 319 320 318 317 317 317 317 318 320 320 322 323 322 321 322 324 323 324 331 336 336 334 332 330 329 329 330 328 325 323 321 320 320 319 318 317 316
287 291 297 303 305 303 300 297 295 295 295 293 292 291 290 291 292 293 294 294 295 296 297 296 296 299 303 305 308 310 310 308 308 310 310 310 311 312 313 314 314 314 315 316 316 315 316 318 319 319 317 316 316 316 316 318 320 320 321 321 319 319 320 322 322 325 331 336 336 334 331 329 328 328 328 326 325 324 323 321 321 321 321 320 319
285 287 294 301 302 300 297 295 295 295 295 292 291 292 292 292 293 293 293 293 294 294 295 295 296 300 303 304 305 307 307 304 305 306 306 307 308 309 310 312 313 313 314 315 316 316 316 317 318 317 316 315 315 316 316 317 319 319 319 319 318 319 319 320 322 328 334 336 336 333 330 327 327 327 326 325 324 325 325 324 323 324 324 323 324
285 288 293 298 298 295 293 292 292 292 292 292 292 293 293 293 293 294 294 293 292 292 293 293 296 299 302 304 305 306 305 304 304 305 305 306 307 308 309 311 313 313 313 314 314 314 315 316 317 316 315 315 315 314 314 316 317 318 318 318 318 317 318 319 323 332 337 336 335 333 329 326 326 327 326 325 326 326 326 326 326 327 327 327 329
287 290 293 295 295 294 292 290 290 289 290 291 291 292 293 293 294 294 294 293 292 292 292 293 295 298 300 303 305 305 304 305 305 305 305 306 307 307 309 311 313 314 314 315 316 315 315 316 317 317 316 316 316 314 314 316 317 317 318 318 317 316 316 318 323 331 336 335 333 331 328 326 326 327 326 325 326 326 327 327 328 329 330 330 332
288 290 293 294 294 293 291 290 289 289 290 290 289 290 292 294 294 294 294 293 293 293 293 294 295 297 298 300 302 303 303 304 305 304 305 306 307 308 309 311 313 314 315 316 316 315 315 317 318 318 317 317 317 316 316 318 319 320 319 317 316 315 315 317 321 328 332 332 331 329 326 324 325 326 325 325 325 324 324 327 330 331 333 333 333
289 291 293 293 292 291 291 290 290 289 289 289 289 290 292 293 294 294 293 293 293 294 294 295 296 296 297 298 300 301 302 303 304 305 305 306 307 308 310 311 313 314 314 315 314 313 315 317 318 317 317 317 318 318 319 320 321 321 321 321 319 318 318 321 324 327 329 329 329 328 325 322 322 323 322 323 324 323 323 327 333 335 335 336 337
290 292 292 291 291 290 289 290 290 290 289 289 289 291 293 294 294 293 293 294 294 294 294 295 295 296 296 298 299 300 302 303 303 304 305 306 307 309 310 312 313 313 313 313 313 314 315 317 318 318 318 318 318 319 320 320 322 323 324 325 325 324 326 329 330 328 326 325 327 327 324 321 321 322 323 324 324 324 324 329 334 338 340 340 340
294 293 291 290 289 288 288 289 290 290 290 291 292 293 293 293 294 293 293 294 295 295 295 295 296 296 297 298 299 300 301 302 303 304 305 306 308 309 311 312 313 312 312 313 313 314 316 318 319 320 319 319 319 320 320 321 323 325 326 327 329 331 334 334 331 326 323 325 327 328 327 325 324 324 324 324 324 324 327 330 335 342 346 345 345
299 296 293 292 290 288 288 290 290 290 291 293 293 293 293 293 293 293 294 294 295 296 296 296 297 298 298 299 300 301 302 302 303 304 305 306 308 310 311 312 311 311 312 312 313 315 318 320 321 322 322 321 320 319 320 321 323 325 328 332 334 334 334 332 329 325 325 327 329 329 330 329 328 326 325 325 325 325 328 332 337 345 350 351 350
300 297 294 292 290 289 290 290 290 291 293 293 293 293 293 293 293 293 294 295 295 296 297 298 298 299 300 300 301 302 302 302 303 304 305 307 309 310 311 311 311 312 313 312 314 317 321 323 323 324 324 323 322 322 323 323 324 327 333 335 331 327 326 328 328 328 329 330 332 333 333 331 329 327 327 328 327 325 328 335 342 346 350 353 352
298 295 293 290 289 290 290 290 291 292 293 293 293 293 293 293 293 293 294 295 295 296 297 299 299 300 301 301 301 302 302 302 303 304 305 307 308 310 310 312 313 314 314 315 318 322 325 325 326 326 326 327 327 327 326 326 328 331 331 328 323 321 325 329 330 330 331 332 334 336 335 333 330 330 332 333 330 328 332 339 341 343 351 357 355